sat.trackr.live / text

‹ back to catalog

STARLINK-30783

NORAD 58130 · 2023-162N

PAYLOAD ACTIVE UNKNOWN

§ Identity

Operator
Country
US
Launch date
2023-10-22
Launch site
AFETR
Launch vehicle
Mass (kg)
RCS (m²)

Purposes: comms

External: N2YO · Heavens-Above · Gunter

§ Orbital elements

Epoch: 2026-05-25T02:43:40.244736Z

Period
94.27 min
Inclination
43.0018°
Eccentricity
0.0000976
Mean motion
15.27581848 rev/d
Perigee alt
482.4 km
Apogee alt
483.7 km
Semi-major
6,861.2 km
B*
3.3053e-5
RAAN
57.6075°
Arg perigee
271.7997°
Mean anomaly
88.2743°
Rev number
14,403

§ Raw data

STARLINK-307831 58130U 23162N   26145.11366024  .00000648  00000+0  33053-4 0  99972 58130  43.0018  57.6075 0000976 271.7997  88.2743 15.27581848144032

JSON: /api/v1/satellites/58130 · /tle

For live sub-satellite position, see the globe view (requires WebGL).

§ Visibility from observer

Set your observer location to see the next 7 days of passes ≥ 10°. The values pass through the URL so the page stays shareable.

No JS? Fill the form by hand. The geolocation button needs JavaScript.